Time,TemperatureF,DewpointF,PressureIn,WindDirection,WindDirectionDegrees,WindSpeedMPH,WindSpeedGustMPH,Humidity,HourlyPrecipIn,Conditions,Clouds,dailyrainin,SolarRadiationWatts/m^2,SoftwareType,DateUTC
2013-02-24 00:00:00,24.8,18.6,29.76,North,0,12.0,16.0,77,0.00,,---,0.00,0.00,VWS V14.01,2013-02-24 06:00:00,
2013-02-24 00:01:00,24.5,18.3,29.76,NW,320,14.0,14.0,77,0.00,,---,0.00,0.00,VWS V14.01,2013-02-24 06:01:00,
2013-02-24 00:05:00,24.2,18.3,29.76,WNW,289,14.0,16.0,78,0.00,,---,0.00,0.00,VWS V14.01,2013-02-24 06:05:00,
2013-02-24 00:06:00,24.1,18.5,29.76,NW,320,17.0,17.0,79,0.00,,---,0.00,0.00,VWS V14.01,2013-02-24 06:06:00,
2013-02-24 00:10:00,24.2,18.6,29.76,North,0,13.0,17.0,79,0.00,,---,0.00,0.00,VWS V14.01,2013-02-24 06:10:00,
2013-02-24 00:12:00,24.2,18.6,29.76,NNW,328,17.0,17.0,79,0.00,,---,0.00,0.00,VWS V14.01,2013-02-24 06:12:00,
2013-02-24 00:15:00,24.1,18.5,29.75,NW,305,14.0,17.0,79,0.00,,---,0.00,0.00,VWS V14.01,2013-02-24 06:15:00,
2013-02-24 00:17:00,23.9,18.4,29.75,WSW,246,12.0,16.0,79,0.00,,---,0.00,0.00,VWS V14.01,2013-02-24 06:17:00,
2013-02-24 00:20:00,23.8,18.2,29.75,SSE,168,12.0,16.0,79,0.00,,---,0.00,0.00,VWS V14.01,2013-02-24 06:20:00,
2013-02-24 00:22:00,23.5,18.0,29.75,SE,138,12.0,14.0,79,0.00,,---,0.00,0.00,VWS V14.01,2013-02-24 06:22:00,
2013-02-24 00:25:00,23.3,17.8,29.75,North,352,13.0,14.0,79,0.00,,---,0.00,0.00,VWS V14.01,2013-02-24 06:25:00,
2013-02-24 00:27:00,23.2,17.7,29.75,WSW,246,14.0,14.0,79,0.00,,---,0.00,0.00,VWS V14.01,2013-02-24 06:27:00,
2013-02-24 00:30:00,23.0,17.5,29.75,WNW,302,12.0,14.0,79,0.00,,---,0.00,0.00,VWS V14.01,2013-02-24 06:30:00,
2013-02-24 00:32:00,23.0,17.8,29.75,NW,322,13.0,14.0,80,0.00,,---,0.00,0.00,VWS V14.01,2013-02-24 06:32:00,
2013-02-24 00:35:00,23.0,17.8,29.75,NW,304,14.0,18.0,80,0.00,,---,0.00,0.00,VWS V14.01,2013-02-24 06:35:00,
2013-02-24 00:37:00,22.9,17.7,29.75,SSW,196,14.0,14.0,80,0.00,,---,0.00,0.00,VWS V14.01,2013-02-24 06:37:00,
2013-02-24 00:40:00,23.0,17.8,29.75,ESE,119,12.0,14.0,80,0.00,,---,0.00,0.00,VWS V14.01,2013-02-24 06:40:00,
2013-02-24 00:42:00,23.0,17.8,29.75,SE,136,12.0,13.0,80,0.00,,---,0.00,0.00,VWS V14.01,2013-02-24 06:42:00,
2013-02-24 00:45:00,23.2,18.0,29.75,NW,319,12.0,14.0,80,0.00,,---,0.00,0.00,VWS V14.01,2013-02-24 06:45:00,
2013-02-24 00:47:00,23.0,17.8,29.75,WNW,298,12.0,13.0,80,0.00,,---,0.00,0.00,VWS V14.01,2013-02-24 06:47:00,
2013-02-24 00:50:00,23.0,17.8,29.75,SE,138,11.0,13.0,80,0.00,,---,0.00,0.00,VWS V14.01,2013-02-24 06:50:00,
2013-02-24 00:52:00,22.9,17.7,29.75,SE,128,13.0,13.0,80,0.00,,---,0.00,0.00,VWS V14.01,2013-02-24 06:52:00,
2013-02-24 00:55:00,22.9,17.7,29.75,North,0,13.0,14.0,80,0.00,,---,0.00,0.00,VWS V14.01,2013-02-24 06:55:00,
2013-02-24 00:57:00,22.9,17.7,29.75,SSE,167,13.0,14.0,80,0.00,,---,0.00,0.00,VWS V14.01,2013-02-24 06:57:00,
2013-02-24 01:00:00,22.7,17.5,29.75,SSE,168,13.0,16.0,80,0.00,,---,0.00,0.00,VWS V14.01,2013-02-24 07:00:00,
2013-02-24 01:02:00,22.7,17.5,29.75,SE,144,13.0,16.0,80,0.00,,---,0.00,0.00,VWS V14.01,2013-02-24 07:02:00,
2013-02-24 01:05:00,22.7,17.5,29.75,NNW,343,13.0,16.0,80,0.00,,---,0.00,0.00,VWS V14.01,2013-02-24 07:05:00,
2013-02-24 01:07:00,22.7,17.5,29.75,South,171,13.0,15.0,80,0.00,,---,0.00,0.00,VWS V14.01,2013-02-24 07:07:00,
2013-02-24 01:10:00,22.9,17.7,29.75,North,0,13.0,15.0,80,0.00,,---,0.00,0.00,VWS V14.01,2013-02-24 07:10:00,
2013-02-24 01:12:00,22.7,17.5,29.75,SE,144,13.0,17.0,80,0.00,,---,0.00,0.00,VWS V14.01,2013-02-24 07:12:00,
2013-02-24 01:15:00,22.7,17.5,29.75,WSW,257,14.0,17.0,80,0.00,,---,0.00,0.00,VWS V14.01,2013-02-24 07:15:00,
2013-02-24 01:17:00,22.7,17.5,29.75,West,270,16.0,17.0,80,0.00,,---,0.00,0.00,VWS V14.01,2013-02-24 07:17:00,
2013-02-24 01:20:00,22.7,17.5,29.75,North,0,17.0,17.0,80,0.00,,---,0.00,0.00,VWS V14.01,2013-02-24 07:20:00,
2013-02-24 01:23:00,22.9,17.7,29.75,ESE,117,16.0,18.0,80,0.00,,---,0.00,0.00,VWS V14.01,2013-02-24 07:23:00,
2013-02-24 01:25:00,22.9,17.7,29.75,WSW,247,16.0,18.0,80,0.00,,---,0.00,0.00,VWS V14.01,2013-02-24 07:25:00,
2013-02-24 01:28:00,22.9,17.7,29.75,NW,322,16.0,18.0,80,0.00,,---,0.00,0.00,VWS V14.01,2013-02-24 07:28:00,
2013-02-24 01:30:00,23.0,17.8,29.75,SSE,151,17.0,18.0,80,0.00,,---,0.00,0.00,VWS V14.01,2013-02-24 07:30:00,
2013-02-24 01:33:00,23.0,17.8,29.75,WNW,287,15.0,18.0,80,0.00,,---,0.00,0.00,VWS V14.01,2013-02-24 07:33:00,
2013-02-24 01:35:00,23.0,17.8,29.75,NW,304,14.0,18.0,80,0.00,,---,0.00,0.00,VWS V14.01,2013-02-24 07:35:00,
2013-02-24 01:38:00,23.0,17.8,29.75,South,174,16.0,17.0,80,0.00,,---,0.00,0.00,VWS V14.01,2013-02-24 07:38:00,
2013-02-24 01:40:00,23.0,17.8,29.75,NNW,337,13.0,17.0,80,0.00,,---,0.00,0.00,VWS V14.01,2013-02-24 07:40:00,
2013-02-24 01:43:00,22.9,17.7,29.75,SSE,152,14.0,16.0,80,0.00,,---,0.00,0.00,VWS V14.01,2013-02-24 07:43:00,
2013-02-24 01:45:00,22.9,17.7,29.75,NNW,340,14.0,16.0,80,0.00,,---,0.00,0.00,VWS V14.01,2013-02-24 07:45:00,
2013-02-24 01:48:00,22.5,17.3,29.75,NW,325,14.0,17.0,80,0.00,,---,0.00,0.00,VWS V14.01,2013-02-24 07:48:00,
2013-02-24 01:50:00,22.5,17.3,29.75,SSW,213,14.0,17.0,80,0.00,,---,0.00,0.00,VWS V14.01,2013-02-24 07:50:00,
2013-02-24 01:53:00,22.5,17.6,29.75,NW,309,13.0,16.0,81,0.00,,---,0.00,0.00,VWS V14.01,2013-02-24 07:53:00,
2013-02-24 01:55:00,22.5,17.6,29.75,SE,137,14.0,16.0,81,0.00,,---,0.00,0.00,VWS V14.01,2013-02-24 07:55:00,
2013-02-24 01:58:00,22.4,17.2,29.75,North,349,14.0,16.0,80,0.00,,---,0.00,0.00,VWS V14.01,2013-02-24 07:58:00,
2013-02-24 02:00:00,22.5,17.3,29.74,NNW,329,11.0,11.0,80,0.00,,---,0.00,0.00,VWS V14.01,2013-02-24 08:00:00,
2013-02-24 02:03:00,22.4,17.5,29.75,North,0,12.0,15.0,81,0.00,,---,0.00,0.00,VWS V14.01,2013-02-24 08:03:00,
2013-02-24 02:05:00,22.5,17.6,29.75,North,354,13.0,15.0,81,0.00,,---,0.00,0.00,VWS V14.01,2013-02-24 08:05:00,
2013-02-24 02:08:00,22.7,17.5,29.75,NW,320,13.0,14.0,80,0.00,,---,0.00,0.00,VWS V14.01,2013-02-24 08:08:00,
2013-02-24 02:10:00,22.7,17.5,29.75,SSE,157,14.0,14.0,80,0.00,,---,0.00,0.00,VWS V14.01,2013-02-24 08:10:00,
2013-02-24 02:14:00,22.5,17.3,29.75,SSW,199,15.0,16.0,80,0.00,,---,0.00,0.00,VWS V14.01,2013-02-24 08:14:00,
2013-02-24 02:15:00,22.5,17.3,29.75,NNW,332,16.0,16.0,80,0.00,,---,0.00,0.00,VWS V14.01,2013-02-24 08:15:00,
2013-02-24 02:19:00,22.5,17.3,29.75,SW,227,18.0,18.0,80,0.00,,---,0.00,0.00,VWS V14.01,2013-02-24 08:19:00,
2013-02-24 02:20:00,22.5,17.3,29.75,North,353,18.0,18.0,80,0.00,,---,0.00,0.00,VWS V14.01,2013-02-24 08:20:00,
2013-02-24 02:24:00,22.7,17.5,29.75,North,0,15.0,18.0,80,0.00,,---,0.00,0.00,VWS V14.01,2013-02-24 08:24:00,
2013-02-24 02:25:00,22.7,17.5,29.75,West,267,16.0,18.0,80,0.00,,---,0.00,0.00,VWS V14.01,2013-02-24 08:25:00,
2013-02-24 02:29:00,22.9,17.7,29.74,North,0,16.0,17.0,80,0.00,,---,0.00,0.00,VWS V14.01,2013-02-24 08:29:00,
2013-02-24 02:30:00,22.7,17.5,29.74,West,264,10.0,11.0,80,0.00,,---,0.00,0.00,VWS V14.01,2013-02-24 08:30:00,
2013-02-24 02:34:00,22.9,17.7,29.74,SW,229,12.0,17.0,80,0.00,,---,0.00,0.00,VWS V14.01,2013-02-24 08:34:00,
2013-02-24 02:35:00,22.9,17.7,29.74,SE,143,7.0,11.0,80,0.00,,---,0.00,0.00,VWS V14.01,2013-02-24 08:35:00,
2013-02-24 02:39:00,22.9,17.4,29.74,North,0,14.0,16.0,79,0.00,,---,0.00,0.00,VWS V14.01,2013-02-24 08:39:00,
2013-02-24 02:40:00,22.9,17.4,29.74,North,0,14.0,16.0,79,0.00,,---,0.00,0.00,VWS V14.01,2013-02-24 08:40:00,
2013-02-24 02:44:00,22.7,17.5,29.75,North,359,10.0,11.0,80,0.00,,---,0.00,0.00,VWS V14.01,2013-02-24 08:44:00,
2013-02-24 02:45:00,22.7,17.5,29.75,North,0,11.0,14.0,80,0.00,,---,0.00,0.00,VWS V14.01,2013-02-24 08:45:00,
2013-02-24 02:49:00,22.5,17.3,29.75,SE,124,10.0,10.0,80,0.00,,---,0.00,0.00,VWS V14.01,2013-02-24 08:49:00,
2013-02-24 02:50:00,22.5,17.3,29.75,SE,124,9.0,12.0,80,0.00,,---,0.00,0.00,VWS V14.01,2013-02-24 08:50:00,
2013-02-24 02:54:00,22.5,17.3,29.75,ENE,71,11.0,11.0,80,0.00,,---,0.00,0.00,VWS V14.01,2013-02-24 08:54:00,
2013-02-24 02:55:00,22.5,17.3,29.75,NW,309,8.0,11.0,80,0.00,,---,0.00,0.00,VWS V14.01,2013-02-24 08:55:00,
2013-02-24 02:59:00,22.5,17.3,29.74,WSW,257,10.0,11.0,80,0.00,,---,0.00,0.00,VWS V14.01,2013-02-24 08:59:00,
2013-02-24 03:00:00,22.5,17.3,29.74,NNW,329,11.0,11.0,80,0.00,,---,0.00,0.00,VWS V14.01,2013-02-24 09:00:00,
2013-02-24 03:04:00,22.4,17.2,29.74,NNW,347,10.0,11.0,80,0.00,,---,0.00,0.00,VWS V14.01,2013-02-24 09:04:00,
2013-02-24 03:05:00,22.4,17.2,29.74,West,281,11.0,11.0,80,0.00,,---,0.00,0.00,VWS V14.01,2013-02-24 09:05:00,
2013-02-24 03:09:00,22.4,17.2,29.74,SE,145,10.0,11.0,80,0.00,,---,0.00,0.00,VWS V14.01,2013-02-24 09:09:00,
2013-02-24 03:10:00,22.4,17.2,29.74,North,354,11.0,11.0,80,0.00,,---,0.00,0.00,VWS V14.01,2013-02-24 09:10:00,
2013-02-24 03:14:00,22.4,17.2,29.74,SW,229,11.0,11.0,80,0.00,,---,0.00,0.00,VWS V14.01,2013-02-24 09:14:00,
2013-02-24 03:15:00,22.4,17.2,29.74,SE,134,11.0,12.0,80,0.00,,---,0.00,0.00,VWS V14.01,2013-02-24 09:15:00,
2013-02-24 03:20:00,22.4,17.2,29.74,SW,229,10.0,11.0,80,0.00,,---,0.00,0.00,VWS V14.01,2013-02-24 09:20:00,
2013-02-24 03:25:00,22.5,17.3,29.74,North,0,10.0,11.0,80,0.00,,---,0.00,0.00,VWS V14.01,2013-02-24 09:25:00,
2013-02-24 03:30:00,22.7,17.5,29.74,NNW,344,9.0,11.0,80,0.00,,---,0.00,0.00,VWS V14.01,2013-02-24 09:30:00,
2013-02-24 03:35:00,22.9,17.7,29.74,North,0,9.0,11.0,80,0.00,,---,0.00,0.00,VWS V14.01,2013-02-24 09:35:00,
2013-02-24 03:40:00,23.0,17.8,29.74,ESE,116,10.0,10.0,80,0.00,,---,0.00,0.00,VWS V14.01,2013-02-24 09:40:00,
2013-02-24 03:45:00,23.0,17.8,29.73,NNW,337,9.0,10.0,80,0.00,,---,0.00,0.00,VWS V14.01,2013-02-24 09:45:00,
2013-02-24 03:50:00,23.0,17.5,29.73,WNW,296,10.0,11.0,79,0.00,,---,0.00,0.00,VWS V14.01,2013-02-24 09:50:00,
2013-02-24 03:55:00,23.0,17.5,29.73,SE,141,11.0,12.0,79,0.00,,---,0.00,0.00,VWS V14.01,2013-02-24 09:55:00,
2013-02-24 04:00:00,23.0,17.5,29.73,North,359,10.0,12.0,79,0.00,,---,0.00,0.00,VWS V14.01,2013-02-24 10:00:00,
2013-02-24 04:05:00,23.0,17.5,29.73,North,0,10.0,12.0,79,0.00,,---,0.00,0.00,VWS V14.01,2013-02-24 10:05:00,
2013-02-24 04:10:00,23.2,17.7,29.73,WSW,246,11.0,13.0,79,0.00,,---,0.00,0.00,VWS V14.01,2013-02-24 10:10:00,
2013-02-24 04:15:00,23.2,17.4,29.74,NNW,335,11.0,12.0,78,0.00,,---,0.00,0.00,VWS V14.01,2013-02-24 10:15:00,
2013-02-24 04:20:00,22.7,16.9,29.74,NW,305,8.0,11.0,78,0.00,,---,0.00,0.00,VWS V14.01,2013-02-24 10:20:00,
2013-02-24 04:25:00,22.2,16.4,29.74,SW,222,10.0,11.0,78,0.00,,---,0.00,0.00,VWS V14.01,2013-02-24 10:25:00,
2013-02-24 04:30:00,21.9,16.1,29.74,North,0,11.0,11.0,78,0.00,,---,0.00,0.00,VWS V14.01,2013-02-24 10:30:00,
2013-02-24 04:31:00,21.9,16.1,29.74,North,0,10.0,12.0,78,0.00,,---,0.00,0.00,VWS V14.01,2013-02-24 10:31:00,
2013-02-24 04:35:00,21.8,16.3,29.74,SSW,200,10.0,12.0,79,0.00,,---,0.00,0.00,VWS V14.01,2013-02-24 10:35:00,
2013-02-24 04:36:00,21.8,16.3,29.74,WNW,296,9.0,11.0,79,0.00,,---,0.00,0.00,VWS V14.01,2013-02-24 10:36:00,
2013-02-24 04:40:00,21.9,16.4,29.74,South,174,10.0,11.0,79,0.00,,---,0.00,0.00,VWS V14.01,2013-02-24 10:40:00,
2013-02-24 04:41:00,21.9,16.4,29.74,West,261,11.0,11.0,79,0.00,,---,0.00,0.00,VWS V14.01,2013-02-24 10:41:00,
2013-02-24 04:45:00,21.9,16.4,29.74,North,0,9.0,11.0,79,0.00,,---,0.00,0.00,VWS V14.01,2013-02-24 10:45:00,
2013-02-24 04:46:00,22.1,16.6,29.74,SW,217,7.0,11.0,79,0.00,,---,0.00,0.00,VWS V14.01,2013-02-24 10:46:00,
2013-02-24 04:50:00,20.8,15.6,29.76,SSE,160,7.0,9.0,80,0.00,,---,0.00,0.00,VWS V14.01,2013-02-24 10:50:00,
2013-02-24 04:51:00,22.2,16.7,29.74,NNW,328,9.0,11.0,79,0.00,,---,0.00,0.00,VWS V14.01,2013-02-24 10:51:00,
2013-02-24 04:55:00,20.6,15.7,29.76,SSW,192,10.0,11.0,81,0.00,,---,0.00,0.00,VWS V14.01,2013-02-24 10:55:00,
2013-02-24 04:56:00,22.4,16.9,29.74,North,349,11.0,11.0,79,0.00,,---,0.00,0.00,VWS V14.01,2013-02-24 10:56:00,
2013-02-24 05:00:00,22.4,16.9,29.75,SE,141,10.0,11.0,79,0.00,,---,0.00,0.00,VWS V14.01,2013-02-24 11:00:00,
2013-02-24 05:01:00,22.4,16.9,29.75,WNW,298,10.0,11.0,79,0.00,,---,0.00,0.00,VWS V14.01,2013-02-24 11:01:00,
2013-02-24 05:05:00,22.2,16.7,29.75,WSW,258,10.0,11.0,79,0.00,,---,0.00,0.00,VWS V14.01,2013-02-24 11:05:00,
2013-02-24 05:06:00,22.1,16.6,29.75,North,0,7.0,10.0,79,0.00,,---,0.00,0.00,VWS V14.01,2013-02-24 11:06:00,
2013-02-24 05:10:00,21.9,16.4,29.75,SSE,147,7.0,10.0,79,0.00,,---,0.00,0.00,VWS V14.01,2013-02-24 11:10:00,
2013-02-24 05:11:00,21.8,16.3,29.75,South,182,8.0,9.0,79,0.00,,---,0.00,0.00,VWS V14.01,2013-02-24 11:11:00,
2013-02-24 05:15:00,21.8,16.3,29.76,ESE,104,8.0,10.0,79,0.00,,---,0.00,0.00,VWS V14.01,2013-02-24 11:15:00,
2013-02-24 05:16:00,21.8,16.3,29.76,WNW,295,8.0,11.0,79,0.00,,---,0.00,0.00,VWS V14.01,2013-02-24 11:16:00,
2013-02-24 05:20:00,21.6,16.1,29.76,WNW,287,8.0,11.0,79,0.00,,---,0.00,0.00,VWS V14.01,2013-02-24 11:20:00,
2013-02-24 05:21:00,21.6,16.1,29.76,SW,234,10.0,11.0,79,0.00,,---,0.00,0.00,VWS V14.01,2013-02-24 11:21:00,
2013-02-24 05:25:00,21.8,16.6,29.76,SW,229,10.0,11.0,80,0.00,,---,0.00,0.00,VWS V14.01,2013-02-24 11:25:00,
2013-02-24 05:26:00,21.8,16.3,29.76,SSE,162,9.0,10.0,79,0.00,,---,0.00,0.00,VWS V14.01,2013-02-24 11:26:00,
2013-02-24 05:30:00,21.8,16.3,29.76,SE,134,7.0,10.0,79,0.00,,---,0.00,0.00,VWS V14.01,2013-02-24 11:30:00,
2013-02-24 05:31:00,21.6,16.1,29.76,SW,236,6.0,8.0,79,0.00,,---,0.00,0.00,VWS V14.01,2013-02-24 11:31:00,
2013-02-24 05:35:00,21.6,16.1,29.76,SSW,203,7.0,8.0,79,0.00,,---,0.00,0.00,VWS V14.01,2013-02-24 11:35:00,
2013-02-24 05:36:00,21.4,16.2,29.76,South,169,7.0,9.0,80,0.00,,---,0.00,0.00,VWS V14.01,2013-02-24 11:36:00,
2013-02-24 05:40:00,21.4,16.2,29.76,WNW,296,8.0,9.0,80,0.00,,---,0.00,0.00,VWS V14.01,2013-02-24 11:40:00,
2013-02-24 05:41:00,21.3,16.1,29.76,ESE,119,7.0,9.0,80,0.00,,---,0.00,0.00,VWS V14.01,2013-02-24 11:41:00,
2013-02-24 05:45:00,21.3,16.1,29.76,NW,316,8.0,10.0,80,0.00,,---,0.00,0.00,VWS V14.01,2013-02-24 11:45:00,
2013-02-24 05:47:00,21.0,15.8,29.76,ESE,123,8.0,9.0,80,0.00,,---,0.00,0.00,VWS V14.01,2013-02-24 11:47:00,
2013-02-24 05:50:00,20.8,15.6,29.76,SSE,160,7.0,9.0,80,0.00,,---,0.00,0.00,VWS V14.01,2013-02-24 11:50:00,
2013-02-24 05:52:00,20.5,15.6,29.76,SSW,209,8.0,10.0,81,0.00,,---,0.00,0.00,VWS V14.01,2013-02-24 11:52:00,
2013-02-24 05:55:00,20.6,15.7,29.76,SSW,192,10.0,11.0,81,0.00,,---,0.00,0.00,VWS V14.01,2013-02-24 11:55:00,
2013-02-24 05:57:00,21.0,16.4,29.76,SE,137,10.0,10.0,82,0.00,,---,0.00,0.00,VWS V14.01,2013-02-24 11:57:00,
2013-02-24 06:00:00,21.1,16.5,29.76,SE,133,10.0,10.0,82,0.00,,---,0.00,0.00,VWS V14.01,2013-02-24 12:00:00,
2013-02-24 06:02:00,21.4,16.5,29.76,SSE,160,9.0,10.0,81,0.00,,---,0.00,0.00,VWS V14.01,2013-02-24 12:02:00,
2013-02-24 06:05:00,21.3,16.4,29.76,SW,234,10.0,11.0,81,0.00,,---,0.00,0.00,VWS V14.01,2013-02-24 12:05:00,
2013-02-24 06:07:00,21.3,16.4,29.76,SW,219,11.0,11.0,81,0.00,,---,0.00,0.00,VWS V14.01,2013-02-24 12:07:00,
2013-02-24 06:10:00,21.1,16.2,29.76,North,0,10.0,11.0,81,0.00,,---,0.00,0.00,VWS V14.01,2013-02-24 12:10:00,
2013-02-24 06:12:00,21.0,16.1,29.76,WNW,302,11.0,12.0,81,0.00,,---,0.00,0.00,VWS V14.01,2013-02-24 12:12:00,
2013-02-24 06:15:00,21.1,16.2,29.77,North,349,10.0,12.0,81,0.00,,---,0.00,0.00,VWS V14.01,2013-02-24 12:15:00,
2013-02-24 06:17:00,21.0,16.1,29.77,SE,133,10.0,11.0,81,0.00,,---,0.00,0.00,VWS V14.01,2013-02-24 12:17:00,
2013-02-24 06:20:00,21.0,16.1,29.77,North,0,10.0,11.0,81,0.00,,---,0.00,0.00,VWS V14.01,2013-02-24 12:20:00,
2013-02-24 06:22:00,21.0,16.1,29.77,North,356,11.0,11.0,81,0.00,,---,0.00,0.00,VWS V14.01,2013-02-24 12:22:00,
2013-02-24 06:25:00,21.0,16.1,29.77,SSE,167,11.0,11.0,81,0.00,,---,0.00,0.00,VWS V14.01,2013-02-24 12:25:00,
2013-02-24 06:27:00,21.0,16.1,29.77,SE,124,9.0,11.0,81,0.00,,---,0.00,0.00,VWS V14.01,2013-02-24 12:27:00,
2013-02-24 06:30:00,21.0,16.4,29.77,WNW,287,10.0,11.0,82,0.00,,---,0.00,0.00,VWS V14.01,2013-02-24 12:30:00,
2013-02-24 06:32:00,21.0,16.4,29.77,NNW,329,10.0,10.0,82,0.00,,---,0.00,0.00,VWS V14.01,2013-02-24 12:32:00,
2013-02-24 06:35:00,21.0,16.4,29.77,South,188,9.0,10.0,82,0.00,,---,0.00,0.00,VWS V14.01,2013-02-24 12:35:00,
2013-02-24 06:38:00,20.8,16.2,29.77,WNW,291,8.0,10.0,82,0.00,,---,0.00,0.00,VWS V14.01,2013-02-24 12:38:00,
2013-02-24 06:40:00,20.8,16.2,29.77,ESE,120,9.0,11.0,82,0.00,,---,0.00,0.00,VWS V14.01,2013-02-24 12:40:00,
2013-02-24 06:43:00,21.0,16.4,29.77,SE,124,8.0,11.0,82,0.00,,---,0.00,0.00,VWS V14.01,2013-02-24 12:43:00,
2013-02-24 06:45:00,21.0,16.4,29.77,WSW,257,8.0,11.0,82,0.00,,---,0.00,0.00,VWS V14.01,2013-02-24 12:45:00,
2013-02-24 06:48:00,21.0,16.4,29.77,WSW,258,10.0,11.0,82,0.00,,---,0.00,0.00,VWS V14.01,2013-02-24 12:48:00,
2013-02-24 06:50:00,21.0,16.4,29.77,South,189,10.0,11.0,82,0.00,,---,0.00,0.00,VWS V14.01,2013-02-24 12:50:00,
2013-02-24 06:53:00,21.0,16.4,29.77,WNW,302,10.0,11.0,82,0.00,,---,0.00,0.00,VWS V14.01,2013-02-24 12:53:00,
2013-02-24 06:55:00,22.5,17.3,29.76,SW,233,11.0,16.0,80,0.00,,---,0.00,111.00,VWS V14.01,2013-02-24 12:55:00,
2013-02-24 06:58:00,21.0,16.4,29.77,SSW,195,11.0,12.0,82,0.00,,---,0.00,0.00,VWS V14.01,2013-02-24 12:58:00,
2013-02-24 07:00:00,21.0,16.4,29.77,SE,124,11.0,12.0,82,0.00,,---,0.00,0.00,VWS V14.01,2013-02-24 13:00:00,
2013-02-24 07:03:00,20.8,16.2,29.77,NW,308,11.0,12.0,82,0.00,,---,0.00,5.00,VWS V14.01,2013-02-24 13:03:00,
2013-02-24 07:05:00,23.5,18.0,29.77,SSW,199,14.0,14.0,79,0.00,,---,0.00,139.00,VWS V14.01,2013-02-24 13:05:00,
2013-02-24 07:08:00,20.8,16.2,29.77,NNW,343,9.0,12.0,82,0.00,,---,0.00,7.00,VWS V14.01,2013-02-24 13:08:00,
2013-02-24 07:10:00,20.8,16.2,29.77,West,278,11.0,12.0,82,0.00,,---,0.00,0.00,VWS V14.01,2013-02-24 13:10:00,
2013-02-24 07:13:00,21.0,16.4,29.77,North,354,13.0,13.0,82,0.00,,---,0.00,0.00,VWS V14.01,2013-02-24 13:13:00,
2013-02-24 07:15:00,21.0,16.4,29.77,WNW,301,11.0,13.0,82,0.00,,---,0.00,0.00,VWS V14.01,2013-02-24 13:15:00,
2013-02-24 07:18:00,21.1,16.5,29.77,SSW,200,13.0,13.0,82,0.00,,---,0.00,7.00,VWS V14.01,2013-02-24 13:18:00,
2013-02-24 07:20:00,24.5,18.6,29.77,North,353,10.0,14.0,78,0.00,,---,0.00,162.00,VWS V14.01,2013-02-24 13:20:00,
2013-02-24 07:23:00,21.3,16.7,29.77,NW,322,13.0,13.0,82,0.00,,---,0.00,11.00,VWS V14.01,2013-02-24 13:23:00,
2013-02-24 07:25:00,21.3,16.7,29.77,SE,130,11.0,13.0,82,0.00,,---,0.00,11.00,VWS V14.01,2013-02-24 13:25:00,
2013-02-24 07:29:00,21.4,16.8,29.77,SSE,158,10.0,14.0,82,0.00,,---,0.00,16.00,VWS V14.01,2013-02-24 13:29:00,
2013-02-24 07:30:00,21.6,17.0,29.77,NNW,335,13.0,14.0,82,0.00,,---,0.00,16.00,VWS V14.01,2013-02-24 13:30:00,
2013-02-24 07:34:00,21.8,16.9,29.77,West,268,12.0,14.0,81,0.00,,---,0.00,32.00,VWS V14.01,2013-02-24 13:34:00,
2013-02-24 07:35:00,25.3,18.8,29.77,West,264,12.0,14.0,76,0.00,,---,0.00,209.00,VWS V14.01,2013-02-24 13:35:00,
2013-02-24 07:39:00,21.8,16.9,29.77,WNW,292,13.0,14.0,81,0.00,,---,0.00,40.00,VWS V14.01,2013-02-24 13:39:00,
2013-02-24 07:40:00,21.8,16.9,29.77,SSE,152,12.0,14.0,81,0.00,,---,0.00,40.00,VWS V14.01,2013-02-24 13:40:00,
2013-02-24 07:44:00,22.1,17.2,29.76,ESE,123,13.0,16.0,81,0.00,,---,0.00,81.00,VWS V14.01,2013-02-24 13:44:00,
2013-02-24 07:45:00,22.1,17.2,29.76,ESE,123,13.0,16.0,81,0.00,,---,0.00,81.00,VWS V14.01,2013-02-24 13:45:00,
2013-02-24 07:49:00,22.4,17.2,29.76,North,349,13.0,14.0,80,0.00,,---,0.00,95.00,VWS V14.01,2013-02-24 13:49:00,
2013-02-24 07:50:00,22.4,17.2,29.76,North,349,13.0,14.0,80,0.00,,---,0.00,95.00,VWS V14.01,2013-02-24 13:50:00,
2013-02-24 07:54:00,22.5,17.3,29.76,SW,233,11.0,16.0,80,0.00,,---,0.00,111.00,VWS V14.01,2013-02-24 13:54:00,
2013-02-24 07:55:00,22.5,17.3,29.76,SW,233,11.0,16.0,80,0.00,,---,0.00,111.00,VWS V14.01,2013-02-24 13:55:00,
2013-02-24 07:59:00,23.0,17.8,29.77,WSW,239,11.0,14.0,80,0.00,,---,0.00,125.00,VWS V14.01,2013-02-24 13:59:00,
2013-02-24 08:00:00,23.0,17.8,29.77,WSW,239,11.0,14.0,80,0.00,,---,0.00,125.00,VWS V14.01,2013-02-24 14:00:00,
2013-02-24 08:04:00,23.5,18.0,29.77,SW,224,12.0,14.0,79,0.00,,---,0.00,139.00,VWS V14.01,2013-02-24 14:04:00,
2013-02-24 08:05:00,23.5,18.0,29.77,SSW,199,14.0,14.0,79,0.00,,---,0.00,139.00,VWS V14.01,2013-02-24 14:05:00,
2013-02-24 08:09:00,23.8,18.2,29.77,SW,219,11.0,12.0,79,0.00,,---,0.00,134.00,VWS V14.01,2013-02-24 14:09:00,
2013-02-24 08:10:00,23.8,18.2,29.77,South,175,12.0,15.0,79,0.00,,---,0.00,130.00,VWS V14.01,2013-02-24 14:10:00,
2013-02-24 08:14:00,24.2,18.3,29.77,North,352,10.0,12.0,78,0.00,,---,0.00,148.00,VWS V14.01,2013-02-24 14:14:00,
2013-02-24 08:15:00,24.2,18.3,29.77,SSE,150,12.0,14.0,78,0.00,,---,0.00,146.00,VWS V14.01,2013-02-24 14:15:00,
2013-02-24 08:20:00,24.5,18.6,29.77,NW,323,11.0,14.0,78,0.00,,---,0.00,164.00,VWS V14.01,2013-02-24 14:20:00,
2013-02-24 08:25:00,24.8,18.9,29.77,North,0,12.0,13.0,78,0.00,,---,0.00,179.00,VWS V14.01,2013-02-24 14:25:00,
2013-02-24 08:30:00,25.1,18.9,29.77,South,182,12.0,13.0,77,0.00,,---,0.00,195.00,VWS V14.01,2013-02-24 14:30:00,
2013-02-24 08:35:00,25.4,19.2,29.77,WNW,295,12.0,12.0,77,0.00,,---,0.00,211.00,VWS V14.01,2013-02-24 14:35:00,
2013-02-24 08:40:00,25.7,19.5,29.77,ESE,123,11.0,14.0,77,0.00,,---,0.00,252.00,VWS V14.01,2013-02-24 14:40:00,
2013-02-24 08:45:00,26.1,19.6,29.77,SE,124,12.0,14.0,76,0.00,,---,0.00,269.00,VWS V14.01,2013-02-24 14:45:00,
2013-02-24 08:50:00,26.4,19.6,29.77,SSE,147,8.0,14.0,75,0.00,,---,0.00,285.00,VWS V14.01,2013-02-24 14:50:00,
2013-02-24 08:55:00,26.9,20.0,29.77,North,0,12.0,12.0,75,0.00,,---,0.00,301.00,VWS V14.01,2013-02-24 14:55:00,
2013-02-24 09:00:00,27.2,20.3,29.78,West,267,12.0,13.0,75,0.00,,---,0.00,311.00,VWS V14.01,2013-02-24 15:00:00,
2013-02-24 09:01:00,27.3,20.1,29.78,SW,229,10.0,12.0,74,0.00,,---,0.00,315.00,VWS V14.01,2013-02-24 15:01:00,
2013-02-24 09:05:00,27.5,20.3,29.78,WSW,256,10.0,12.0,74,0.00,,---,0.00,326.00,VWS V14.01,2013-02-24 15:05:00,
2013-02-24 09:06:00,27.6,20.4,29.78,SE,128,8.0,10.0,74,0.00,,---,0.00,313.00,VWS V14.01,2013-02-24 15:06:00,
2013-02-24 09:10:00,27.8,20.3,29.78,West,267,5.0,10.0,73,0.00,,---,0.00,320.00,VWS V14.01,2013-02-24 15:10:00,
2013-02-24 09:11:00,27.8,20.3,29.78,SE,138,6.0,8.0,73,0.00,,---,0.00,329.00,VWS V14.01,2013-02-24 15:11:00,
2013-02-24 09:15:00,27.9,20.1,29.79,ESE,114,8.0,10.0,72,0.00,,---,0.00,336.00,VWS V14.01,2013-02-24 15:15:00,
2013-02-24 09:16:00,27.9,20.1,29.79,North,0,7.0,10.0,72,0.00,,---,0.00,345.00,VWS V14.01,2013-02-24 15:16:00,
2013-02-24 09:20:00,27.8,20.0,29.79,ESE,123,8.0,10.0,72,0.00,,---,0.00,352.00,VWS V14.01,2013-02-24 15:20:00,
2013-02-24 09:21:00,27.8,20.3,29.79,SSE,160,11.0,11.0,73,0.00,,---,0.00,359.00,VWS V14.01,2013-02-24 15:21:00,
2013-02-24 09:25:00,27.8,20.3,29.79,South,178,11.0,12.0,73,0.00,,---,0.00,368.00,VWS V14.01,2013-02-24 15:25:00,
2013-02-24 09:26:00,27.9,20.4,29.79,NNW,344,11.0,13.0,73,0.00,,---,0.00,375.00,VWS V14.01,2013-02-24 15:26:00,
2013-02-24 09:30:00,28.1,20.6,29.79,SSE,157,12.0,13.0,73,0.00,,---,0.00,382.00,VWS V14.01,2013-02-24 15:30:00,
2013-02-24 09:31:00,28.2,20.7,29.79,SSW,193,13.0,13.0,73,0.00,,---,0.00,389.00,VWS V14.01,2013-02-24 15:31:00,
2013-02-24 09:35:00,28.2,20.7,29.79,SE,137,12.0,15.0,73,0.00,,---,0.00,396.00,VWS V14.01,2013-02-24 15:35:00,
2013-02-24 09:37:00,28.4,20.5,29.79,NNW,336,13.0,16.0,72,0.00,,---,0.00,405.00,VWS V14.01,2013-02-24 15:37:00,
2013-02-24 09:40:00,31.8,23.5,29.78,SSE,162,8.0,12.0,71,0.00,,---,0.00,429.00,VWS V14.01,2013-02-24 15:40:00,
2013-02-24 09:42:00,28.5,21.0,29.79,NNW,339,10.0,13.0,73,0.00,,---,0.00,442.00,VWS V14.01,2013-02-24 15:42:00,
2013-02-24 09:45:00,28.7,21.2,29.78,NW,305,14.0,14.0,73,0.00,,---,0.00,445.00,VWS V14.01,2013-02-24 15:45:00,
2013-02-24 09:47:00,28.7,20.8,29.78,NNW,328,13.0,15.0,72,0.00,,---,0.00,456.00,VWS V14.01,2013-02-24 15:47:00,
2013-02-24 09:50:00,28.8,20.9,29.78,North,0,12.0,15.0,72,0.00,,---,0.00,459.00,VWS V14.01,2013-02-24 15:50:00,
2013-02-24 09:52:00,28.8,20.9,29.78,NNW,340,13.0,14.0,72,0.00,,---,0.00,468.00,VWS V14.01,2013-02-24 15:52:00,
2013-02-24 09:55:00,29.0,21.1,29.78,SE,126,13.0,16.0,72,0.00,,---,0.00,472.00,VWS V14.01,2013-02-24 15:55:00,
2013-02-24 09:57:00,29.1,21.2,29.78,WNW,301,11.0,13.0,72,0.00,,---,0.00,479.00,VWS V14.01,2013-02-24 15:57:00,
2013-02-24 10:00:00,29.3,21.4,29.78,SSW,206,10.0,13.0,72,0.00,,---,0.00,484.00,VWS V14.01,2013-02-24 16:00:00,
2013-02-24 10:02:00,29.3,21.4,29.78,SW,234,11.0,12.0,72,0.00,,---,0.00,493.00,VWS V14.01,2013-02-24 16:02:00,
2013-02-24 10:05:00,29.3,21.4,29.78,SW,236,9.0,12.0,72,0.00,,---,0.00,498.00,VWS V14.01,2013-02-24 16:05:00,
2013-02-24 10:07:00,29.3,21.4,29.78,North,0,10.0,11.0,72,0.00,,---,0.00,486.00,VWS V14.01,2013-02-24 16:07:00,
2013-02-24 10:10:00,29.3,21.4,29.78,NW,313,8.0,11.0,72,0.00,,---,0.00,491.00,VWS V14.01,2013-02-24 16:10:00,
2013-02-24 10:12:00,29.4,21.5,29.78,West,274,12.0,12.0,72,0.00,,---,0.00,498.00,VWS V14.01,2013-02-24 16:12:00,
2013-02-24 10:15:00,29.5,21.6,29.78,WSW,253,11.0,12.0,72,0.00,,---,0.00,503.00,VWS V14.01,2013-02-24 16:15:00,
2013-02-24 10:17:00,30.0,22.1,29.78,ESE,121,12.0,12.0,72,0.00,,---,0.00,512.00,VWS V14.01,2013-02-24 16:17:00,
2013-02-24 10:20:00,30.0,22.1,29.78,NNW,344,8.0,13.0,72,0.00,,---,0.00,516.00,VWS V14.01,2013-02-24 16:20:00,
2013-02-24 10:22:00,30.4,22.5,29.78,ESE,104,12.0,12.0,72,0.00,,---,0.00,524.00,VWS V14.01,2013-02-24 16:22:00,
2013-02-24 10:25:00,30.6,22.3,29.78,West,277,9.0,12.0,71,0.00,,---,0.00,526.00,VWS V14.01,2013-02-24 16:25:00,
2013-02-24 10:28:00,30.9,22.3,29.78,SW,215,7.0,13.0,70,0.00,,---,0.00,535.00,VWS V14.01,2013-02-24 16:28:00,
2013-02-24 10:30:00,31.0,22.7,29.78,East,96,10.0,13.0,71,0.00,,---,0.00,538.00,VWS V14.01,2013-02-24 16:30:00,
2013-02-24 10:33:00,31.3,22.7,29.78,SSE,158,11.0,11.0,70,0.00,,---,0.00,547.00,VWS V14.01,2013-02-24 16:33:00,
2013-02-24 10:35:00,31.3,22.7,29.78,North,0,11.0,11.0,70,0.00,,---,0.00,549.00,VWS V14.01,2013-02-24 16:35:00,
2013-02-24 10:38:00,31.6,23.3,29.78,NNW,343,9.0,11.0,71,0.00,,---,0.00,429.00,VWS V14.01,2013-02-24 16:38:00,
2013-02-24 10:40:00,31.8,23.5,29.78,SSE,162,8.0,12.0,71,0.00,,---,0.00,429.00,VWS V14.01,2013-02-24 16:40:00,
2013-02-24 10:43:00,32.4,23.7,29.78,ESE,104,9.0,12.0,70,0.00,,---,0.00,582.00,VWS V14.01,2013-02-24 16:43:00,
2013-02-24 10:45:00,32.5,23.8,29.77,West,272,6.0,12.0,70,0.00,,---,0.00,584.00,VWS V14.01,2013-02-24 16:45:00,
2013-02-24 10:48:00,32.9,23.9,29.77,North,356,7.0,11.0,69,0.00,,---,0.00,591.00,VWS V14.01,2013-02-24 16:48:00,
2013-02-24 10:50:00,32.9,23.9,29.77,North,354,8.0,11.0,69,0.00,,---,0.00,595.00,VWS V14.01,2013-02-24 16:50:00,
2013-02-24 10:53:00,33.4,24.3,29.77,ESE,102,7.0,10.0,69,0.00,,---,0.00,607.00,VWS V14.01,2013-02-24 16:53:00,
2013-02-24 10:55:00,35.5,26.0,29.75,East,90,10.0,11.0,68,0.00,,---,0.00,452.00,VWS V14.01,2013-02-24 16:55:00,
2013-02-24 10:58:00,33.7,24.3,29.77,ESE,102,11.0,11.0,68,0.00,,---,0.00,621.00,VWS V14.01,2013-02-24 16:58:00,
2013-02-24 11:00:00,33.7,24.3,29.77,South,172,10.0,11.0,68,0.00,,---,0.00,621.00,VWS V14.01,2013-02-24 17:00:00,
2013-02-24 11:03:00,34.0,24.6,29.77,NNW,329,10.0,11.0,68,0.00,,---,0.00,700.00,VWS V14.01,2013-02-24 17:03:00,
2013-02-24 11:05:00,35.9,26.4,29.75,SSW,202,7.0,11.0,68,0.00,,---,0.00,472.00,VWS V14.01,2013-02-24 17:05:00,
2013-02-24 11:08:00,34.3,24.5,29.77,WNW,302,7.0,11.0,67,0.00,,---,0.00,926.00,VWS V14.01,2013-02-24 17:08:00,
2013-02-24 11:10:00,34.3,24.9,29.77,ESE,103,8.0,11.0,68,0.00,,---,0.00,926.00,VWS V14.01,2013-02-24 17:10:00,
2013-02-24 11:13:00,34.3,24.5,29.77,SW,233,7.0,11.0,67,0.00,,---,0.00,456.00,VWS V14.01,2013-02-24 17:13:00,
2013-02-24 11:15:00,36.2,26.0,29.74,SSE,147,11.0,13.0,66,0.00,,---,0.00,498.00,VWS V14.01,2013-02-24 17:15:00,
2013-02-24 11:18:00,34.4,25.0,29.77,East,97,5.0,10.0,68,0.00,,---,0.00,385.00,VWS V14.01,2013-02-24 17:18:00,
2013-02-24 11:20:00,36.5,26.2,29.74,NNW,337,13.0,14.0,66,0.00,,---,0.00,531.00,VWS V14.01,2013-02-24 17:20:00,
2013-02-24 11:23:00,34.4,24.6,29.77,ESE,116,6.0,10.0,67,0.00,,---,0.00,368.00,VWS V14.01,2013-02-24 17:23:00,
2013-02-24 11:25:00,34.4,24.6,29.77,ESE,103,7.0,10.0,67,0.00,,---,0.00,368.00,VWS V14.01,2013-02-24 17:25:00,
2013-02-24 11:29:00,34.4,25.0,29.77,SSW,213,6.0,10.0,68,0.00,,---,0.00,370.00,VWS V14.01,2013-02-24 17:29:00,
2013-02-24 11:30:00,34.4,25.0,29.77,North,357,8.0,10.0,68,0.00,,---,0.00,370.00,VWS V14.01,2013-02-24 17:30:00,
2013-02-24 11:34:00,34.6,25.1,29.77,ESE,102,7.0,10.0,68,0.00,,---,0.00,392.00,VWS V14.01,2013-02-24 17:34:00,
2013-02-24 11:35:00,34.6,25.1,29.77,SW,229,6.0,10.0,68,0.00,,---,0.00,392.00,VWS V14.01,2013-02-24 17:35:00,
2013-02-24 11:39:00,34.7,25.2,29.77,East,99,6.0,8.0,68,0.00,,---,0.00,408.00,VWS V14.01,2013-02-24 17:39:00,
2013-02-24 11:40:00,34.7,25.2,29.77,SSW,203,7.0,8.0,68,0.00,,---,0.00,408.00,VWS V14.01,2013-02-24 17:40:00,
2013-02-24 11:44:00,34.9,25.4,29.75,NW,318,9.0,11.0,68,0.00,,---,0.00,442.00,VWS V14.01,2013-02-24 17:44:00,
2013-02-24 11:45:00,34.9,25.4,29.75,North,0,8.0,11.0,68,0.00,,---,0.00,442.00,VWS V14.01,2013-02-24 17:45:00,
2013-02-24 11:49:00,35.0,25.5,29.75,SW,229,7.0,10.0,68,0.00,,---,0.00,454.00,VWS V14.01,2013-02-24 17:49:00,
2013-02-24 11:50:00,35.0,25.5,29.75,NNW,336,10.0,10.0,68,0.00,,---,0.00,454.00,VWS V14.01,2013-02-24 17:50:00,
2013-02-24 11:54:00,35.5,26.0,29.75,East,90,10.0,11.0,68,0.00,,---,0.00,452.00,VWS V14.01,2013-02-24 17:54:00,
2013-02-24 11:55:00,35.5,26.0,29.75,East,90,10.0,11.0,68,0.00,,---,0.00,452.00,VWS V14.01,2013-02-24 17:55:00,
2013-02-24 11:59:00,35.6,26.1,29.75,NW,322,8.0,10.0,68,0.00,,---,0.00,456.00,VWS V14.01,2013-02-24 17:59:00,
2013-02-24 12:00:00,37.2,27.6,29.71,East,82,10.0,12.0,68,0.00,,---,0.00,556.00,VWS V14.01,2013-02-24 18:00:00,
2013-02-24 12:04:00,35.9,26.4,29.75,SSW,202,7.0,11.0,68,0.00,,---,0.00,472.00,VWS V14.01,2013-02-24 18:04:00,
2013-02-24 12:05:00,35.9,26.4,29.75,SSW,202,7.0,11.0,68,0.00,,---,0.00,472.00,VWS V14.01,2013-02-24 18:05:00,
2013-02-24 12:09:00,36.0,26.1,29.75,WNW,302,10.0,12.0,67,0.00,,---,0.00,484.00,VWS V14.01,2013-02-24 18:09:00,
2013-02-24 12:10:00,36.0,26.1,29.75,WNW,302,10.0,12.0,67,0.00,,---,0.00,484.00,VWS V14.01,2013-02-24 18:10:00,
2013-02-24 12:14:00,36.2,26.0,29.74,West,275,12.0,12.0,66,0.00,,---,0.00,498.00,VWS V14.01,2013-02-24 18:14:00,
2013-02-24 12:15:00,36.2,26.0,29.74,SSE,147,11.0,13.0,66,0.00,,---,0.00,498.00,VWS V14.01,2013-02-24 18:15:00,
2013-02-24 12:19:00,36.5,26.2,29.74,WSW,247,11.0,13.0,66,0.00,,---,0.00,531.00,VWS V14.01,2013-02-24 18:19:00,
2013-02-24 12:20:00,36.5,26.2,29.74,NNW,337,13.0,14.0,66,0.00,,---,0.00,531.00,VWS V14.01,2013-02-24 18:20:00,
2013-02-24 12:24:00,36.6,26.3,29.74,South,181,10.0,10.0,66,0.00,,---,0.00,519.00,VWS V14.01,2013-02-24 18:24:00,
2013-02-24 12:25:00,36.6,26.3,29.74,WSW,239,8.0,13.0,66,0.00,,---,0.00,519.00,VWS V14.01,2013-02-24 18:25:00,
2013-02-24 12:29:00,36.8,26.5,29.73,WSW,251,9.0,11.0,66,0.00,,---,0.00,486.00,VWS V14.01,2013-02-24 18:29:00,
2013-02-24 12:30:00,36.8,26.5,29.73,SW,223,8.0,12.0,66,0.00,,---,0.00,473.00,VWS V14.01,2013-02-24 18:30:00,
2013-02-24 12:34:00,36.8,26.5,29.73,SSW,213,8.0,11.0,66,0.00,,---,0.00,459.00,VWS V14.01,2013-02-24 18:34:00,
2013-02-24 12:35:00,36.8,26.5,29.73,West,280,9.0,11.0,66,0.00,,---,0.00,463.00,VWS V14.01,2013-02-24 18:35:00,
2013-02-24 12:39:00,36.8,26.9,29.73,East,80,7.0,8.0,67,0.00,,---,0.00,452.00,VWS V14.01,2013-02-24 18:39:00,
2013-02-24 12:40:00,36.8,26.5,29.73,SSE,167,7.0,12.0,66,0.00,,---,0.00,442.00,VWS V14.01,2013-02-24 18:40:00,
2013-02-24 12:44:00,36.5,27.0,29.72,ENE,69,8.0,10.0,68,0.00,,---,0.00,454.00,VWS V14.01,2013-02-24 18:44:00,
2013-02-24 12:45:00,36.6,27.0,29.72,ESE,116,10.0,12.0,68,0.00,,---,0.00,456.00,VWS V14.01,2013-02-24 18:45:00,
2013-02-24 12:50:00,36.8,27.2,29.72,SW,229,10.0,12.0,68,0.00,,---,0.00,482.00,VWS V14.01,2013-02-24 18:50:00,
2013-02-24 12:55:00,36.9,27.0,29.72,West,280,11.0,12.0,67,0.00,,---,0.00,517.00,VWS V14.01,2013-02-24 18:55:00,
2013-02-24 13:00:00,37.0,27.4,29.71,ESE,106,10.0,12.0,68,0.00,,---,0.00,563.00,VWS V14.01,2013-02-24 19:00:00,
2013-02-24 13:05:00,37.0,27.4,29.71,East,86,11.0,11.0,68,0.00,,---,0.00,512.00,VWS V14.01,2013-02-24 19:05:00,
2013-02-24 13:10:00,37.0,27.4,29.71,SSE,152,11.0,11.0,68,0.00,,---,0.00,507.00,VWS V14.01,2013-02-24 19:10:00,
2013-02-24 13:15:00,37.0,27.4,29.70,East,90,10.0,12.0,68,0.00,,---,0.00,507.00,VWS V14.01,2013-02-24 19:15:00,
2013-02-24 13:20:00,37.0,27.4,29.70,SW,233,13.0,13.0,68,0.00,,---,0.00,486.00,VWS V14.01,2013-02-24 19:20:00,
2013-02-24 13:25:00,37.2,27.3,29.70,SSW,208,10.0,16.0,67,0.00,,---,0.00,459.00,VWS V14.01,2013-02-24 19:25:00,
2013-02-24 13:30:00,37.2,27.6,29.69,East,95,11.0,12.0,68,0.00,,---,0.00,484.00,VWS V14.01,2013-02-24 19:30:00,
2013-02-24 13:35:00,37.2,27.6,29.69,SSW,195,10.0,12.0,68,0.00,,---,0.00,491.00,VWS V14.01,2013-02-24 19:35:00,
2013-02-24 13:40:00,37.2,27.6,29.69,East,95,12.0,13.0,68,0.00,,---,0.00,549.00,VWS V14.01,2013-02-24 19:40:00,
2013-02-24 13:45:00,37.2,27.6,29.68,SW,216,10.0,13.0,68,0.00,,---,0.00,528.00,VWS V14.01,2013-02-24 19:45:00,
2013-02-24 13:46:00,37.3,27.7,29.68,SE,133,11.0,11.0,68,0.00,,---,0.00,514.00,VWS V14.01,2013-02-24 19:46:00,
2013-02-24 13:50:00,37.5,27.9,29.68,East,99,11.0,13.0,68,0.00,,---,0.00,505.00,VWS V14.01,2013-02-24 19:50:00,
2013-02-24 13:51:00,37.5,27.9,29.68,East,95,10.0,11.0,68,0.00,,---,0.00,517.00,VWS V14.01,2013-02-24 19:51:00,
2013-02-24 13:55:00,37.5,27.9,29.68,SSE,162,8.0,13.0,68,0.00,,---,0.00,579.00,VWS V14.01,2013-02-24 19:55:00,
2013-02-24 13:56:00,37.5,27.9,29.68,SSW,199,11.0,13.0,68,0.00,,---,0.00,561.00,VWS V14.01,2013-02-24 19:56:00,
2013-02-24 14:00:00,37.5,28.3,29.69,East,100,11.0,13.0,69,0.00,,---,0.00,542.00,VWS V14.01,2013-02-24 20:00:00,
2013-02-24 14:01:00,37.5,28.3,29.69,ESE,106,11.0,12.0,69,0.00,,---,0.00,660.00,VWS V14.01,2013-02-24 20:01:00,
2013-02-24 14:05:00,37.6,28.4,29.69,WNW,285,12.0,13.0,69,0.00,,---,0.00,575.00,VWS V14.01,2013-02-24 20:05:00,
2013-02-24 14:06:00,37.8,28.2,29.69,SE,133,12.0,12.0,68,0.00,,---,0.00,725.00,VWS V14.01,2013-02-24 20:06:00,
2013-02-24 14:10:00,37.9,27.9,29.69,West,272,11.0,14.0,67,0.00,,---,0.00,614.00,VWS V14.01,2013-02-24 20:10:00,
2013-02-24 14:11:00,37.9,27.9,29.69,ESE,103,10.0,13.0,67,0.00,,---,0.00,567.00,VWS V14.01,2013-02-24 20:11:00,
2013-02-24 14:15:00,38.0,28.0,29.69,NNW,347,12.0,14.0,67,0.00,,---,0.00,528.00,VWS V14.01,2013-02-24 20:15:00,
2013-02-24 14:16:00,37.9,27.9,29.69,SSW,202,12.0,14.0,67,0.00,,---,0.00,577.00,VWS V14.01,2013-02-24 20:16:00,
2013-02-24 14:20:00,37.9,27.9,29.69,ESE,102,8.0,14.0,67,0.00,,---,0.00,320.00,VWS V14.01,2013-02-24 20:20:00,
2013-02-24 14:21:00,37.8,27.8,29.69,East,100,9.0,13.0,67,0.00,,---,0.00,361.00,VWS V14.01,2013-02-24 20:21:00,
2013-02-24 14:25:00,37.8,28.2,29.69,ESE,103,9.0,13.0,68,0.00,,---,0.00,287.00,VWS V14.01,2013-02-24 20:25:00,
2013-02-24 14:26:00,37.6,28.0,29.69,NW,323,10.0,13.0,68,0.00,,---,0.00,315.00,VWS V14.01,2013-02-24 20:26:00,
2013-02-24 14:30:00,37.6,28.0,29.69,ESE,104,9.0,13.0,68,0.00,,---,0.00,303.00,VWS V14.01,2013-02-24 20:30:00,
2013-02-24 14:31:00,37.6,28.4,29.69,ESE,103,8.0,11.0,69,0.00,,---,0.00,334.00,VWS V14.01,2013-02-24 20:31:00,
2013-02-24 14:35:00,37.8,28.2,29.69,East,97,9.0,13.0,68,0.00,,---,0.00,713.00,VWS V14.01,2013-02-24 20:35:00,
2013-02-24 14:36:00,38.0,28.4,29.69,SE,128,8.0,13.0,68,0.00,,---,0.00,677.00,VWS V14.01,2013-02-24 20:36:00,
2013-02-24 14:40:00,38.2,28.9,29.69,North,0,7.0,11.0,69,0.00,,---,0.00,392.00,VWS V14.01,2013-02-24 20:40:00,
2013-02-24 14:41:00,38.3,28.7,29.69,ESE,110,8.0,11.0,68,0.00,,---,0.00,632.00,VWS V14.01,2013-02-24 20:41:00,
2013-02-24 14:45:00,38.3,28.7,29.69,East,100,6.0,11.0,68,0.00,,---,0.00,598.00,VWS V14.01,2013-02-24 20:45:00,
2013-02-24 14:47:00,38.5,28.9,29.69,East,99,7.0,11.0,68,0.00,,---,0.00,605.00,VWS V14.01,2013-02-24 20:47:00,
2013-02-24 14:50:00,37.9,28.6,29.69,West,280,10.0,14.0,69,0.00,,---,0.00,440.00,VWS V14.01,2013-02-24 20:50:00,
2013-02-24 14:52:00,38.5,28.9,29.69,East,100,10.0,13.0,68,0.00,,---,0.00,503.00,VWS V14.01,2013-02-24 20:52:00,
2013-02-24 14:55:00,38.3,28.3,29.69,ESE,104,9.0,13.0,67,0.00,,---,0.00,524.00,VWS V14.01,2013-02-24 20:55:00,
2013-02-24 14:57:00,38.3,28.7,29.69,ESE,106,10.0,13.0,68,0.00,,---,0.00,480.00,VWS V14.01,2013-02-24 20:57:00,
2013-02-24 15:00:00,38.2,28.6,29.69,West,268,11.0,13.0,68,0.00,,---,0.00,463.00,VWS V14.01,2013-02-24 21:00:00,
2013-02-24 15:02:00,38.0,28.8,29.69,WSW,244,8.0,12.0,69,0.00,,---,0.00,466.00,VWS V14.01,2013-02-24 21:02:00,
2013-02-24 15:05:00,37.9,28.6,29.69,East,97,7.0,12.0,69,0.00,,---,0.00,443.00,VWS V14.01,2013-02-24 21:05:00,
2013-02-24 15:07:00,38.0,28.8,29.69,SSE,161,8.0,12.0,69,0.00,,---,0.00,447.00,VWS V14.01,2013-02-24 21:07:00,
2013-02-24 15:10:00,38.0,28.8,29.69,South,182,10.0,10.0,69,0.00,,---,0.00,334.00,VWS V14.01,2013-02-24 21:10:00,
2013-02-24 15:12:00,37.9,28.6,29.69,East,90,6.0,11.0,69,0.00,,---,0.00,454.00,VWS V14.01,2013-02-24 21:12:00,
2013-02-24 15:15:00,38.0,28.8,29.69,North,0,7.0,11.0,69,0.00,,---,0.00,482.00,VWS V14.01,2013-02-24 21:15:00,
2013-02-24 15:17:00,38.0,28.8,29.69,WSW,258,9.0,12.0,69,0.00,,---,0.00,417.00,VWS V14.01,2013-02-24 21:17:00,
2013-02-24 15:20:00,38.0,28.8,29.69,East,79,7.0,12.0,69,0.00,,---,0.00,324.00,VWS V14.01,2013-02-24 21:20:00,
2013-02-24 15:22:00,38.0,28.8,29.69,East,92,6.0,11.0,69,0.00,,---,0.00,431.00,VWS V14.01,2013-02-24 21:22:00,
2013-02-24 15:25:00,38.0,28.8,29.69,East,99,8.0,11.0,69,0.00,,---,0.00,419.00,VWS V14.01,2013-02-24 21:25:00,
2013-02-24 15:27:00,38.0,28.8,29.69,ESE,110,7.0,8.0,69,0.00,,---,0.00,364.00,VWS V14.01,2013-02-24 21:27:00,
2013-02-24 15:30:00,38.0,28.8,29.69,East,100,5.0,8.0,69,0.00,,---,0.00,355.00,VWS V14.01,2013-02-24 21:30:00,
2013-02-24 15:32:00,38.0,28.8,29.69,SE,127,5.0,7.0,69,0.00,,---,0.00,350.00,VWS V14.01,2013-02-24 21:32:00,
2013-02-24 15:35:00,38.0,28.8,29.69,NNW,335,11.0,11.0,69,0.00,,---,0.00,391.00,VWS V14.01,2013-02-24 21:35:00,
2013-02-24 15:37:00,38.2,28.9,29.69,North,0,7.0,11.0,69,0.00,,---,0.00,387.00,VWS V14.01,2013-02-24 21:37:00,
2013-02-24 15:40:00,37.8,28.6,29.69,WNW,285,13.0,14.0,69,0.00,,---,0.00,238.00,VWS V14.01,2013-02-24 21:40:00,
2013-02-24 15:43:00,38.2,28.9,29.69,SW,236,10.0,12.0,69,0.00,,---,0.00,408.00,VWS V14.01,2013-02-24 21:43:00,
2013-02-24 15:45:00,38.0,28.4,29.69,West,278,11.0,12.0,68,0.00,,---,0.00,424.00,VWS V14.01,2013-02-24 21:45:00,
2013-02-24 15:48:00,38.0,28.4,29.69,SE,133,8.0,14.0,68,0.00,,---,0.00,429.00,VWS V14.01,2013-02-24 21:48:00,
2013-02-24 15:50:00,37.9,28.6,29.69,West,280,10.0,14.0,69,0.00,,---,0.00,440.00,VWS V14.01,2013-02-24 21:50:00,
2013-02-24 15:53:00,38.0,28.8,29.69,West,272,6.0,13.0,69,0.00,,---,0.00,375.00,VWS V14.01,2013-02-24 21:53:00,
2013-02-24 15:55:00,38.0,28.8,29.69,ESE,102,5.0,13.0,69,0.00,,---,0.00,361.00,VWS V14.01,2013-02-24 21:55:00,
2013-02-24 15:58:00,38.0,28.8,29.69,SW,232,10.0,12.0,69,0.00,,---,0.00,340.00,VWS V14.01,2013-02-24 21:58:00,
2013-02-24 16:00:00,38.0,28.4,29.69,SE,126,10.0,12.0,68,0.00,,---,0.00,327.00,VWS V14.01,2013-02-24 22:00:00,
2013-02-24 16:03:00,38.0,28.8,29.69,East,86,7.0,10.0,69,0.00,,---,0.00,417.00,VWS V14.01,2013-02-24 22:03:00,
2013-02-24 16:05:00,38.0,28.8,29.69,SW,230,6.0,10.0,69,0.00,,---,0.00,417.00,VWS V14.01,2013-02-24 22:05:00,
2013-02-24 16:08:00,38.0,28.8,29.69,East,85,6.0,10.0,69,0.00,,---,0.00,334.00,VWS V14.01,2013-02-24 22:08:00,
2013-02-24 16:10:00,38.0,28.8,29.69,South,182,10.0,10.0,69,0.00,,---,0.00,334.00,VWS V14.01,2013-02-24 22:10:00,
2013-02-24 16:13:00,38.0,28.8,29.69,East,82,7.0,10.0,69,0.00,,---,0.00,334.00,VWS V14.01,2013-02-24 22:13:00,
2013-02-24 16:15:00,38.0,28.8,29.69,SSE,151,11.0,11.0,69,0.00,,---,0.00,345.00,VWS V14.01,2013-02-24 22:15:00,
2013-02-24 16:18:00,38.0,28.8,29.69,SE,136,9.0,12.0,69,0.00,,---,0.00,362.00,VWS V14.01,2013-02-24 22:18:00,
2013-02-24 16:20:00,38.0,28.8,29.69,East,79,7.0,12.0,69,0.00,,---,0.00,324.00,VWS V14.01,2013-02-24 22:20:00,
2013-02-24 16:23:00,38.0,28.8,29.69,SSW,212,9.0,11.0,69,0.00,,---,0.00,322.00,VWS V14.01,2013-02-24 22:23:00,
2013-02-24 16:25:00,36.8,28.6,29.70,NNW,329,14.0,14.0,72,0.00,,---,0.00,63.00,VWS V14.01,2013-02-24 22:25:00,
2013-02-24 16:28:00,37.9,28.6,29.69,ESE,113,6.0,10.0,69,0.00,,---,0.00,308.00,VWS V14.01,2013-02-24 22:28:00,
2013-02-24 16:30:00,37.9,28.6,29.69,East,90,7.0,10.0,69,0.00,,---,0.00,308.00,VWS V14.01,2013-02-24 22:30:00,
2013-02-24 16:33:00,37.9,28.6,29.69,SSW,206,8.0,11.0,69,0.00,,---,0.00,267.00,VWS V14.01,2013-02-24 22:33:00,
2013-02-24 16:35:00,37.9,28.6,29.69,SSW,200,6.0,11.0,69,0.00,,---,0.00,267.00,VWS V14.01,2013-02-24 22:35:00,
2013-02-24 16:38:00,37.8,28.6,29.69,WNW,296,12.0,13.0,69,0.00,,---,0.00,238.00,VWS V14.01,2013-02-24 22:38:00,
2013-02-24 16:40:00,37.8,28.6,29.69,WNW,285,13.0,14.0,69,0.00,,---,0.00,238.00,VWS V14.01,2013-02-24 22:40:00,
2013-02-24 16:44:00,37.9,28.6,29.69,NNW,339,11.0,13.0,69,0.00,,---,0.00,243.00,VWS V14.01,2013-02-24 22:44:00,
2013-02-24 16:45:00,37.9,28.6,29.69,ENE,68,7.0,13.0,69,0.00,,---,0.00,243.00,VWS V14.01,2013-02-24 22:45:00,
2013-02-24 16:49:00,37.8,28.6,29.69,NNW,344,11.0,11.0,69,0.00,,---,0.00,230.00,VWS V14.01,2013-02-24 22:49:00,
2013-02-24 16:50:00,37.8,28.6,29.69,ENE,69,8.0,11.0,69,0.00,,---,0.00,230.00,VWS V14.01,2013-02-24 22:50:00,
2013-02-24 16:54:00,37.6,28.7,29.69,NNW,332,11.0,12.0,70,0.00,,---,0.00,199.00,VWS V14.01,2013-02-24 22:54:00,
2013-02-24 16:55:00,37.6,28.7,29.69,SSW,196,10.0,12.0,70,0.00,,---,0.00,199.00,VWS V14.01,2013-02-24 22:55:00,
2013-02-24 16:59:00,37.5,29.0,29.70,WSW,240,8.0,11.0,71,0.00,,---,0.00,167.00,VWS V14.01,2013-02-24 22:59:00,
2013-02-24 17:00:00,37.5,29.0,29.70,SSE,150,8.0,11.0,71,0.00,,---,0.00,167.00,VWS V14.01,2013-02-24 23:00:00,
2013-02-24 17:04:00,37.3,28.4,29.70,SE,133,14.0,14.0,70,0.00,,---,0.00,99.00,VWS V14.01,2013-02-24 23:04:00,
2013-02-24 17:05:00,37.3,28.4,29.70,West,274,12.0,14.0,70,0.00,,---,0.00,99.00,VWS V14.01,2013-02-24 23:05:00,
2013-02-24 17:09:00,37.2,28.7,29.70,SSW,195,12.0,13.0,71,0.00,,---,0.00,174.00,VWS V14.01,2013-02-24 23:09:00,
2013-02-24 17:10:00,37.2,28.7,29.70,SSW,195,12.0,13.0,71,0.00,,---,0.00,174.00,VWS V14.01,2013-02-24 23:10:00,
2013-02-24 17:14:00,37.0,28.5,29.70,East,80,13.0,14.0,71,0.00,,---,0.00,90.00,VWS V14.01,2013-02-24 23:14:00,
2013-02-24 17:15:00,37.0,28.5,29.70,East,80,13.0,14.0,71,0.00,,---,0.00,90.00,VWS V14.01,2013-02-24 23:15:00,
2013-02-24 17:19:00,36.9,28.4,29.70,WSW,240,12.0,13.0,71,0.00,,---,0.00,67.00,VWS V14.01,2013-02-24 23:19:00,
2013-02-24 17:20:00,36.9,28.4,29.70,WSW,240,12.0,13.0,71,0.00,,---,0.00,67.00,VWS V14.01,2013-02-24 23:20:00,
2013-02-24 17:24:00,36.8,28.6,29.70,NNW,329,14.0,14.0,72,0.00,,---,0.00,63.00,VWS V14.01,2013-02-24 23:24:00,
2013-02-24 17:25:00,36.8,28.6,29.70,NNW,329,14.0,14.0,72,0.00,,---,0.00,63.00,VWS V14.01,2013-02-24 23:25:00,
2013-02-24 17:29:00,36.8,28.6,29.70,ENE,58,13.0,14.0,72,0.00,,---,0.00,86.00,VWS V14.01,2013-02-24 23:29:00,
2013-02-24 17:30:00,36.8,28.6,29.70,ENE,58,13.0,14.0,72,0.00,,---,0.00,86.00,VWS V14.01,2013-02-24 23:30:00,
2013-02-24 17:34:00,36.5,28.7,29.70,ESE,114,12.0,14.0,73,0.00,,---,0.00,99.00,VWS V14.01,2013-02-24 23:34:00,
2013-02-24 17:35:00,36.5,28.7,29.70,ESE,114,12.0,14.0,73,0.00,,---,0.00,99.00,VWS V14.01,2013-02-24 23:35:00,
2013-02-24 17:39:00,36.3,28.8,29.70,NNW,333,13.0,14.0,74,0.00,,---,0.00,77.00,VWS V14.01,2013-02-24 23:39:00,
2013-02-24 17:40:00,36.3,28.8,29.70,NNW,333,13.0,14.0,74,0.00,,---,0.00,77.00,VWS V14.01,2013-02-24 23:40:00,
2013-02-24 17:44:00,36.5,28.7,29.70,WSW,246,13.0,15.0,73,0.00,,---,0.00,56.00,VWS V14.01,2013-02-24 23:44:00,
2013-02-24 17:45:00,36.5,28.7,29.70,SW,219,15.0,16.0,73,0.00,,---,0.00,56.00,VWS V14.01,2013-02-24 23:45:00,
2013-02-24 17:49:00,36.5,28.7,29.70,ESE,112,13.0,17.0,73,0.00,,---,0.00,44.00,VWS V14.01,2013-02-24 23:49:00,
2013-02-24 17:50:00,36.5,28.7,29.70,ENE,75,17.0,17.0,73,0.00,,---,0.00,46.00,VWS V14.01,2013-02-24 23:50:00,
2013-02-24 17:54:00,36.5,28.7,29.70,NW,315,12.0,14.0,73,0.00,,---,0.00,32.00,VWS V14.01,2013-02-24 23:54:00,
2013-02-24 17:55:00,36.5,28.7,29.70,East,85,11.0,17.0,73,0.00,,---,0.00,33.00,VWS V14.01,2013-02-24 23:55:00,
2013-02-24 17:59:00,36.3,28.5,29.71,NW,308,13.0,13.0,73,0.00,,---,0.00,23.00,VWS V14.01,2013-02-24 23:59:00,
2013-02-24 18:00:00,36.3,28.5,29.71,East,82,12.0,16.0,73,0.00,,---,0.00,23.00,VWS V14.01,2013-02-25 00:00:00,
2013-02-24 18:04:00,36.2,28.7,29.71,WSW,243,11.0,13.0,74,0.00,,---,0.00,16.00,VWS V14.01,2013-02-25 00:04:00,
2013-02-24 18:05:00,36.2,28.4,29.71,ENE,78,13.0,14.0,73,0.00,,---,0.00,18.00,VWS V14.01,2013-02-25 00:05:00,
2013-02-24 18:09:00,36.2,28.7,29.71,SSE,164,12.0,13.0,74,0.00,,---,0.00,9.00,VWS V14.01,2013-02-25 00:09:00,
2013-02-24 18:10:00,36.2,28.7,29.71,North,350,11.0,14.0,74,0.00,,---,0.00,9.00,VWS V14.01,2013-02-25 00:10:00,
2013-02-24 18:15:00,36.0,28.5,29.71,WSW,246,12.0,13.0,74,0.00,,---,0.00,5.00,VWS V14.01,2013-02-25 00:15:00,
2013-02-24 18:20:00,35.9,28.8,29.71,North,0,12.0,12.0,75,0.00,,---,0.00,0.00,VWS V14.01,2013-02-25 00:20:00,
2013-02-24 18:25:00,35.6,28.8,29.71,North,0,10.0,11.0,76,0.00,,---,0.00,0.00,VWS V14.01,2013-02-25 00:25:00,
2013-02-24 18:30:00,35.5,28.7,29.72,West,280,10.0,11.0,76,0.00,,---,0.00,0.00,VWS V14.01,2013-02-25 00:30:00,
2013-02-24 18:35:00,35.5,29.0,29.72,ENE,71,9.0,11.0,77,0.00,,---,0.00,0.00,VWS V14.01,2013-02-25 00:35:00,
2013-02-24 18:40:00,35.5,28.7,29.72,ENE,66,7.0,13.0,76,0.00,,---,0.00,0.00,VWS V14.01,2013-02-25 00:40:00,
2013-02-24 18:45:00,35.6,28.8,29.73,WSW,254,8.0,10.0,76,0.00,,---,0.00,0.00,VWS V14.01,2013-02-25 00:45:00,
2013-02-24 18:50:00,35.6,28.8,29.73,East,82,9.0,11.0,76,0.00,,---,0.00,0.00,VWS V14.01,2013-02-25 00:50:00,
2013-02-24 18:55:00,35.5,28.7,29.73,SSE,148,12.0,12.0,76,0.00,,---,0.00,0.00,VWS V14.01,2013-02-25 00:55:00,
2013-02-24 19:00:00,35.5,28.7,29.74,East,85,10.0,12.0,76,0.00,,---,0.00,0.00,VWS V14.01,2013-02-25 01:00:00,
2013-02-24 19:05:00,35.5,28.7,29.74,NW,306,12.0,13.0,76,0.00,,---,0.00,0.00,VWS V14.01,2013-02-25 01:05:00,
2013-02-24 19:06:00,35.5,28.4,29.74,NNW,339,12.0,14.0,75,0.00,,---,0.00,0.00,VWS V14.01,2013-02-25 01:06:00,
2013-02-24 19:10:00,35.6,28.5,29.74,WSW,257,12.0,14.0,75,0.00,,---,0.00,0.00,VWS V14.01,2013-02-25 01:10:00,
2013-02-24 19:11:00,35.6,28.5,29.74,NNW,329,8.0,13.0,75,0.00,,---,0.00,0.00,VWS V14.01,2013-02-25 01:11:00,
2013-02-24 19:15:00,35.6,28.5,29.74,NW,304,13.0,13.0,75,0.00,,---,0.00,0.00,VWS V14.01,2013-02-25 01:15:00,
2013-02-24 19:16:00,35.6,28.5,29.74,NNW,332,12.0,15.0,75,0.00,,---,0.00,0.00,VWS V14.01,2013-02-25 01:16:00,
2013-02-24 19:20:00,35.6,28.5,29.74,NW,323,12.0,15.0,75,0.00,,---,0.00,0.00,VWS V14.01,2013-02-25 01:20:00,
2013-02-24 19:21:00,35.6,28.5,29.74,North,0,11.0,13.0,75,0.00,,---,0.00,0.00,VWS V14.01,2013-02-25 01:21:00,
2013-02-24 19:25:00,35.9,28.1,29.76,NNW,346,12.0,16.0,73,0.00,,---,0.00,0.00,VWS V14.01,2013-02-25 01:25:00,
2013-02-24 19:26:00,35.6,28.5,29.74,South,178,13.0,18.0,75,0.00,,---,0.00,0.00,VWS V14.01,2013-02-25 01:26:00,
2013-02-24 19:30:00,35.9,28.1,29.76,SE,137,13.0,16.0,73,0.00,,---,0.00,0.00,VWS V14.01,2013-02-25 01:30:00,
2013-02-24 19:31:00,35.6,28.5,29.74,NW,313,11.0,17.0,75,0.00,,---,0.00,0.00,VWS V14.01,2013-02-25 01:31:00,
2013-02-24 19:35:00,35.6,28.5,29.74,WSW,254,14.0,17.0,75,0.00,,---,0.00,0.00,VWS V14.01,2013-02-25 01:35:00,
2013-02-24 19:36:00,35.8,28.3,29.74,ENE,61,11.0,14.0,74,0.00,,---,0.00,0.00,VWS V14.01,2013-02-25 01:36:00,
2013-02-24 19:40:00,35.8,28.3,29.74,North,0,10.0,14.0,74,0.00,,---,0.00,0.00,VWS V14.01,2013-02-25 01:40:00,
2013-02-24 19:41:00,35.8,28.3,29.74,WNW,282,10.0,13.0,74,0.00,,---,0.00,0.00,VWS V14.01,2013-02-25 01:41:00,
2013-02-24 19:45:00,35.8,28.3,29.75,WNW,299,16.0,16.0,74,0.00,,---,0.00,0.00,VWS V14.01,2013-02-25 01:45:00,
2013-02-24 19:46:00,35.9,28.4,29.75,ESE,109,16.0,16.0,74,0.00,,---,0.00,0.00,VWS V14.01,2013-02-25 01:46:00,
2013-02-24 19:50:00,35.9,28.4,29.75,ENE,58,12.0,16.0,74,0.00,,---,0.00,0.00,VWS V14.01,2013-02-25 01:50:00,
2013-02-24 19:51:00,35.9,28.4,29.75,North,0,10.0,13.0,74,0.00,,---,0.00,0.00,VWS V14.01,2013-02-25 01:51:00,
2013-02-24 19:55:00,35.8,28.3,29.75,ENE,72,12.0,13.0,74,0.00,,---,0.00,0.00,VWS V14.01,2013-02-25 01:55:00,
2013-02-24 19:56:00,35.8,28.3,29.75,NW,315,12.0,13.0,74,0.00,,---,0.00,0.00,VWS V14.01,2013-02-25 01:56:00,
2013-02-24 20:00:00,35.8,28.3,29.76,ESE,110,12.0,14.0,74,0.00,,---,0.00,0.00,VWS V14.01,2013-02-25 02:00:00,
2013-02-24 20:01:00,35.8,28.3,29.76,SSW,200,11.0,14.0,74,0.00,,---,0.00,0.00,VWS V14.01,2013-02-25 02:01:00,
2013-02-24 20:05:00,35.8,28.3,29.76,WNW,299,7.0,14.0,74,0.00,,---,0.00,0.00,VWS V14.01,2013-02-25 02:05:00,
2013-02-24 20:07:00,35.8,28.3,29.76,SW,215,11.0,12.0,74,0.00,,---,0.00,0.00,VWS V14.01,2013-02-25 02:07:00,
2013-02-24 20:10:00,35.8,28.3,29.76,North,352,11.0,12.0,74,0.00,,---,0.00,0.00,VWS V14.01,2013-02-25 02:10:00,
2013-02-24 20:12:00,35.8,28.3,29.76,East,80,12.0,13.0,74,0.00,,---,0.00,0.00,VWS V14.01,2013-02-25 02:12:00,
2013-02-24 20:15:00,35.8,28.3,29.76,NE,34,10.0,13.0,74,0.00,,---,0.00,0.00,VWS V14.01,2013-02-25 02:15:00,
2013-02-24 20:17:00,35.8,28.3,29.76,NW,325,12.0,13.0,74,0.00,,---,0.00,0.00,VWS V14.01,2013-02-25 02:17:00,
2013-02-24 20:20:00,35.9,28.4,29.76,East,82,13.0,14.0,74,0.00,,---,0.00,0.00,VWS V14.01,2013-02-25 02:20:00,
2013-02-24 20:22:00,35.9,28.1,29.76,South,176,10.0,16.0,73,0.00,,---,0.00,0.00,VWS V14.01,2013-02-25 02:22:00,
2013-02-24 20:25:00,35.9,28.1,29.76,NNW,346,12.0,16.0,73,0.00,,---,0.00,0.00,VWS V14.01,2013-02-25 02:25:00,
2013-02-24 20:27:00,35.9,28.1,29.76,NNE,32,16.0,16.0,73,0.00,,---,0.00,0.00,VWS V14.01,2013-02-25 02:27:00,
2013-02-24 20:30:00,35.9,28.1,29.76,SE,137,13.0,16.0,73,0.00,,---,0.00,0.00,VWS V14.01,2013-02-25 02:30:00,
2013-02-24 20:32:00,35.9,28.1,29.76,NE,52,13.0,16.0,73,0.00,,---,0.00,0.00,VWS V14.01,2013-02-25 02:32:00,
2013-02-24 20:35:00,35.9,28.1,29.76,West,271,12.0,16.0,73,0.00,,---,0.00,0.00,VWS V14.01,2013-02-25 02:35:00,
2013-02-24 20:37:00,35.8,28.3,29.76,North,357,12.0,13.0,74,0.00,,---,0.00,0.00,VWS V14.01,2013-02-25 02:37:00,
2013-02-24 20:40:00,35.8,28.3,29.76,East,79,12.0,14.0,74,0.00,,---,0.00,0.00,VWS V14.01,2013-02-25 02:40:00,
2013-02-24 20:42:00,35.8,28.3,29.76,West,268,10.0,15.0,74,0.00,,---,0.00,0.00,VWS V14.01,2013-02-25 02:42:00,
2013-02-24 20:45:00,35.8,28.3,29.77,NNW,329,13.0,15.0,74,0.00,,---,0.00,0.00,VWS V14.01,2013-02-25 02:45:00,
2013-02-24 20:47:00,35.8,28.3,29.77,East,82,12.0,14.0,74,0.00,,---,0.00,0.00,VWS V14.01,2013-02-25 02:47:00,
2013-02-24 20:50:00,35.8,28.3,29.77,SSE,152,11.0,14.0,74,0.00,,---,0.00,0.00,VWS V14.01,2013-02-25 02:50:00,
2013-02-24 20:52:00,35.8,28.3,29.77,SE,131,11.0,15.0,74,0.00,,---,0.00,0.00,VWS V14.01,2013-02-25 02:52:00,
2013-02-24 20:55:00,34.9,28.1,29.78,North,359,13.0,13.0,76,0.00,,---,0.00,0.00,VWS V14.01,2013-02-25 02:55:00,
2013-02-24 20:57:00,35.8,28.3,29.77,SW,234,9.0,15.0,74,0.00,,---,0.00,0.00,VWS V14.01,2013-02-25 02:57:00,
2013-02-24 21:00:00,35.6,28.1,29.77,SSW,209,12.0,16.0,74,0.00,,---,0.00,0.00,VWS V14.01,2013-02-25 03:00:00,
2013-02-24 21:02:00,35.6,28.5,29.77,NNE,27,12.0,13.0,75,0.00,,---,0.00,0.00,VWS V14.01,2013-02-25 03:02:00,
2013-02-24 21:05:00,35.5,28.4,29.77,NE,48,12.0,13.0,75,0.00,,---,0.00,0.00,VWS V14.01,2013-02-25 03:05:00,
2013-02-24 21:07:00,35.5,28.4,29.77,NNE,21,13.0,14.0,75,0.00,,---,0.00,0.00,VWS V14.01,2013-02-25 03:07:00,
2013-02-24 21:10:00,35.5,28.4,29.77,SSE,157,11.0,14.0,75,0.00,,---,0.00,0.00,VWS V14.01,2013-02-25 03:10:00,
2013-02-24 21:12:00,35.5,28.4,29.77,SE,141,5.0,16.0,75,0.00,,---,0.00,0.00,VWS V14.01,2013-02-25 03:12:00,
2013-02-24 21:15:00,35.5,28.4,29.77,NE,47,14.0,16.0,75,0.00,,---,0.00,0.00,VWS V14.01,2013-02-25 03:15:00,
2013-02-24 21:18:00,35.5,28.4,29.77,NNE,28,13.0,16.0,75,0.00,,---,0.00,0.00,VWS V14.01,2013-02-25 03:18:00,
2013-02-24 21:20:00,35.3,28.2,29.77,NE,45,13.0,17.0,75,0.00,,---,0.00,0.00,VWS V14.01,2013-02-25 03:20:00,
2013-02-24 21:23:00,35.3,28.2,29.77,South,174,12.0,17.0,75,0.00,,---,0.00,0.00,VWS V14.01,2013-02-25 03:23:00,
2013-02-24 21:25:00,35.3,28.2,29.77,WSW,248,14.0,17.0,75,0.00,,---,0.00,0.00,VWS V14.01,2013-02-25 03:25:00,
2013-02-24 21:28:00,35.3,27.9,29.77,North,0,12.0,14.0,74,0.00,,---,0.00,0.00,VWS V14.01,2013-02-25 03:28:00,
2013-02-24 21:30:00,35.3,27.9,29.77,NNW,332,12.0,16.0,74,0.00,,---,0.00,0.00,VWS V14.01,2013-02-25 03:30:00,
2013-02-24 21:33:00,35.3,27.9,29.77,North,349,10.0,15.0,74,0.00,,---,0.00,0.00,VWS V14.01,2013-02-25 03:33:00,
2013-02-24 21:35:00,35.3,27.9,29.77,NE,34,14.0,16.0,74,0.00,,---,0.00,0.00,VWS V14.01,2013-02-25 03:35:00,
2013-02-24 21:38:00,35.3,27.9,29.77,NNE,20,13.0,17.0,74,0.00,,---,0.00,0.00,VWS V14.01,2013-02-25 03:38:00,
2013-02-24 21:40:00,35.3,28.2,29.77,NNE,18,11.0,17.0,75,0.00,,---,0.00,0.00,VWS V14.01,2013-02-25 03:40:00,
2013-02-24 21:43:00,35.2,28.1,29.78,North,0,11.0,13.0,75,0.00,,---,0.00,0.00,VWS V14.01,2013-02-25 03:43:00,
2013-02-24 21:45:00,35.2,28.1,29.78,North,3,13.0,13.0,75,0.00,,---,0.00,0.00,VWS V14.01,2013-02-25 03:45:00,
2013-02-24 21:48:00,34.9,28.1,29.78,NNW,346,7.0,14.0,76,0.00,,---,0.00,0.00,VWS V14.01,2013-02-25 03:48:00,
2013-02-24 21:50:00,34.9,28.1,29.78,North,349,12.0,14.0,76,0.00,,---,0.00,0.00,VWS V14.01,2013-02-25 03:50:00,
2013-02-24 21:53:00,34.9,28.1,29.78,North,0,12.0,12.0,76,0.00,,---,0.00,0.00,VWS V14.01,2013-02-25 03:53:00,
2013-02-24 21:55:00,34.9,28.1,29.78,North,359,13.0,13.0,76,0.00,,---,0.00,0.00,VWS V14.01,2013-02-25 03:55:00,
2013-02-24 21:58:00,34.9,28.4,29.78,North,10,7.0,13.0,77,0.00,,---,0.00,0.00,VWS V14.01,2013-02-25 03:58:00,
2013-02-24 22:00:00,34.9,28.4,29.78,NNE,30,8.0,13.0,77,0.00,,---,0.00,0.00,VWS V14.01,2013-02-25 04:00:00,
2013-02-24 22:03:00,34.9,28.4,29.78,ESE,112,13.0,16.0,77,0.00,,---,0.00,0.00,VWS V14.01,2013-02-25 04:03:00,
2013-02-24 22:05:00,34.9,28.4,29.78,NE,49,11.0,16.0,77,0.00,,---,0.00,0.00,VWS V14.01,2013-02-25 04:05:00,
2013-02-24 22:08:00,34.7,28.2,29.78,ENE,65,8.0,14.0,77,0.00,,---,0.00,0.00,VWS V14.01,2013-02-25 04:08:00,
2013-02-24 22:10:00,34.7,28.2,29.78,NE,48,11.0,14.0,77,0.00,,---,0.00,0.00,VWS V14.01,2013-02-25 04:10:00,
2013-02-24 22:13:00,34.6,28.5,29.77,ENE,61,10.0,17.0,78,0.00,,---,0.00,0.00,VWS V14.01,2013-02-25 04:13:00,
2013-02-24 22:15:00,34.6,28.5,29.77,NE,34,12.0,17.0,78,0.00,,---,0.00,0.00,VWS V14.01,2013-02-25 04:15:00,
2013-02-24 22:19:00,34.4,28.6,29.77,NNE,14,9.0,16.0,79,0.00,,---,0.00,0.00,VWS V14.01,2013-02-25 04:19:00,
2013-02-24 22:20:00,34.4,28.6,29.77,NE,56,10.0,16.0,79,0.00,,---,0.00,0.00,VWS V14.01,2013-02-25 04:20:00,
2013-02-24 22:24:00,34.3,28.5,29.77,NNE,28,11.0,16.0,79,0.00,,---,0.00,0.00,VWS V14.01,2013-02-25 04:24:00,
2013-02-24 22:25:00,33.5,29.5,29.76,SE,133,17.0,22.0,85,0.01,,---,0.01,0.00,VWS V14.01,2013-02-25 04:25:00,
2013-02-24 22:29:00,34.1,28.6,29.78,SSW,202,11.0,17.0,80,0.00,,---,0.00,0.00,VWS V14.01,2013-02-25 04:29:00,
2013-02-24 22:30:00,34.1,28.6,29.78,West,267,15.0,18.0,80,0.00,,---,0.00,0.00,VWS V14.01,2013-02-25 04:30:00,
2013-02-24 22:34:00,34.0,28.8,29.78,SW,223,14.0,16.0,81,0.00,,---,0.00,0.00,VWS V14.01,2013-02-25 04:34:00,
2013-02-24 22:35:00,34.0,28.8,29.78,SW,227,17.0,17.0,81,0.00,,---,0.00,0.00,VWS V14.01,2013-02-25 04:35:00,
2013-02-24 22:39:00,33.8,28.9,29.78,ESE,123,13.0,17.0,82,0.01,,---,0.01,0.00,VWS V14.01,2013-02-25 04:39:00,
2013-02-24 22:40:00,33.5,29.8,29.76,South,175,16.0,19.0,86,0.01,,---,0.01,0.00,VWS V14.01,2013-02-25 04:40:00,
2013-02-24 22:44:00,33.7,29.1,29.77,NNE,14,10.0,18.0,83,0.01,,---,0.01,0.00,VWS V14.01,2013-02-25 04:44:00,
2013-02-24 22:45:00,33.7,29.1,29.77,ESE,110,10.0,18.0,83,0.01,,---,0.01,0.00,VWS V14.01,2013-02-25 04:45:00,
2013-02-24 22:49:00,33.7,29.4,29.77,WNW,288,12.0,13.0,84,0.01,,---,0.01,0.00,VWS V14.01,2013-02-25 04:49:00,
2013-02-24 22:50:00,33.7,29.4,29.77,East,93,13.0,17.0,84,0.01,,---,0.01,0.00,VWS V14.01,2013-02-25 04:50:00,
2013-02-24 22:54:00,33.7,29.4,29.77,ENE,78,13.0,16.0,84,0.01,,---,0.01,0.00,VWS V14.01,2013-02-25 04:54:00,
2013-02-24 22:55:00,33.7,29.4,29.77,South,184,16.0,18.0,84,0.01,,---,0.01,0.00,VWS V14.01,2013-02-25 04:55:00,
2013-02-24 22:59:00,33.7,29.4,29.76,WSW,247,14.0,17.0,84,0.01,,---,0.01,0.00,VWS V14.01,2013-02-25 04:59:00,
2013-02-24 23:00:00,33.7,29.4,29.76,North,0,12.0,17.0,84,0.01,,---,0.01,0.00,VWS V14.01,2013-02-25 05:00:00,
2013-02-24 23:01:00,33.7,29.4,29.76,SW,227,14.0,17.0,84,0.01,,---,0.01,0.00,VWS V14.01,2013-02-25 05:01:00,
2013-02-24 23:05:00,33.5,29.2,29.76,WNW,294,10.0,18.0,84,0.01,,---,0.01,0.00,VWS V14.01,2013-02-25 05:05:00,
2013-02-24 23:06:00,33.5,29.5,29.76,NE,37,17.0,18.0,85,0.01,,---,0.01,0.00,VWS V14.01,2013-02-25 05:06:00,
2013-02-24 23:10:00,33.5,29.5,29.76,WSW,254,12.0,18.0,85,0.01,,---,0.01,0.00,VWS V14.01,2013-02-25 05:10:00,
2013-02-24 23:11:00,33.5,29.5,29.76,NNE,23,14.0,19.0,85,0.01,,---,0.01,0.00,VWS V14.01,2013-02-25 05:11:00,
2013-02-24 23:15:00,33.5,29.5,29.76,East,100,16.0,19.0,85,0.01,,---,0.01,0.00,VWS V14.01,2013-02-25 05:15:00,
2013-02-24 23:16:00,33.5,29.5,29.76,SW,233,14.0,18.0,85,0.01,,---,0.01,0.00,VWS V14.01,2013-02-25 05:16:00,
2013-02-24 23:20:00,33.5,29.5,29.76,NE,40,17.0,19.0,85,0.01,,---,0.01,0.00,VWS V14.01,2013-02-25 05:20:00,
2013-02-24 23:21:00,33.5,29.5,29.76,South,188,14.0,18.0,85,0.01,,---,0.01,0.00,VWS V14.01,2013-02-25 05:21:00,
2013-02-24 23:25:00,33.5,29.5,29.76,SE,133,17.0,22.0,85,0.01,,---,0.01,0.00,VWS V14.01,2013-02-25 05:25:00,
2013-02-24 23:26:00,33.5,29.5,29.76,SW,219,13.0,18.0,85,0.01,,---,0.01,0.00,VWS V14.01,2013-02-25 05:26:00,
2013-02-24 23:30:00,33.5,29.5,29.76,NW,304,14.0,19.0,85,0.01,,---,0.01,0.00,VWS V14.01,2013-02-25 05:30:00,
2013-02-24 23:31:00,33.5,29.5,29.76,SSE,151,14.0,19.0,85,0.01,,---,0.01,0.00,VWS V14.01,2013-02-25 05:31:00,
2013-02-24 23:35:00,33.5,29.5,29.76,NNW,340,16.0,19.0,85,0.01,,---,0.01,0.00,VWS V14.01,2013-02-25 05:35:00,
2013-02-24 23:36:00,33.5,29.8,29.76,East,79,14.0,19.0,86,0.01,,---,0.01,0.00,VWS V14.01,2013-02-25 05:36:00,
2013-02-24 23:40:00,33.5,29.8,29.76,South,175,16.0,19.0,86,0.01,,---,0.01,0.00,VWS V14.01,2013-02-25 05:40:00,
2013-02-24 23:41:00,33.5,29.8,29.76,South,172,16.0,18.0,86,0.00,,---,0.01,0.00,VWS V14.01,2013-02-25 05:41:00,
2013-02-24 23:45:00,33.5,29.8,29.77,WSW,257,11.0,19.0,86,0.00,,---,0.01,0.00,VWS V14.01,2013-02-25 05:45:00,
2013-02-24 23:46:00,33.5,29.8,29.77,ESE,104,14.0,17.0,86,0.00,,---,0.01,0.00,VWS V14.01,2013-02-25 05:46:00,
2013-02-24 23:50:00,33.5,29.8,29.77,South,174,12.0,17.0,86,0.00,,---,0.01,0.00,VWS V14.01,2013-02-25 05:50:00,
2013-02-24 23:51:00,33.5,29.8,29.77,NNE,25,12.0,18.0,86,0.00,,---,0.01,0.00,VWS V14.01,2013-02-25 05:51:00,
2013-02-24 23:55:00,33.5,29.8,29.77,SW,215,12.0,18.0,86,0.00,,---,0.01,0.00,VWS V14.01,2013-02-25 05:55:00,
2013-02-24 23:56:00,33.5,29.8,29.77,South,169,9.0,13.0,86,0.00,,---,0.01,0.00,VWS V14.01,2013-02-25 05:56:00,